This is the latest recevied weather packets stored in our database for station/object KB0BS-13. If no packets are shown the sender has not sent any weather packets the latest 10 day(s).
| Time | Temp. | Humidity | Pressure | Rain* | Wind** | Luminosity | Snow |
|---|---|---|---|---|---|---|---|
| 1778085920 | 4.44° C | 61% | 1013.5 hPa | 0 mm | - | 215 W/m² | - |
| 1778085618 | 4.44° C | 61% | 1013.3 hPa | 0 mm | - | 198 W/m² | - |
| 1778085314 | 4.44° C | 61% | 1013.5 hPa | 0 mm | - | 193 W/m² | - |
| 1778085010 | 4.44° C | 62% | 1013.4 hPa | 0 mm | - | 194 W/m² | - |
| 1778084706 | 4.44° C | 65% | 1013.3 hPa | 0 mm | - | 211 W/m² | - |
| 1778084403 | 5° C | 62% | 1013.3 hPa | 0 mm | - | 244 W/m² | - |
| 1778084101 | 4.44° C | 62% | 1013.3 hPa | 0 mm | - | 279 W/m² | - |
| 1778083798 | 4.44° C | 64% | 1013.3 hPa | 0 mm | - | 261 W/m² | - |
| 1778083495 | 3.89° C | 65% | 1013.2 hPa | 0 mm | - | 176 W/m² | - |
| 1778083192 | 4.44° C | 64% | 1013.1 hPa | 0 mm | - | 194 W/m² | - |
| 1778082890 | 3.89° C | 62% | 1013 hPa | 0 mm | - | 211 W/m² | - |
| 1778081777 | 4.44° C | 63% | 1013 hPa | 0 mm | - | 244 W/m² | - |
| 1778081474 | 4.44° C | 64% | 1013.1 hPa | 0 mm | - | 257 W/m² | - |
| 1778081171 | 3.89° C | 63% | 1012.9 hPa | 0 mm | - | 253 W/m² | - |
| 1778080869 | 3.89° C | 63% | 1012.9 hPa | 0 mm | - | 224 W/m² | - |
| 1778080567 | 3.89° C | 66% | 1013 hPa | 0 mm | - | 214 W/m² | - |
| 1778080263 | 3.89° C | 67% | 1012.9 hPa | 0 mm | - | 228 W/m² | - |
| 1778079960 | 3.89° C | 66% | 1012.9 hPa | 0 mm | - | 230 W/m² | - |
| 1778079657 | 3.89° C | 64% | 1012.9 hPa | 0 mm | - | 226 W/m² | - |
| 1778079354 | 3.89° C | 65% | 1013 hPa | 0 mm | - | 232 W/m² | - |
| 1778079051 | 3.89° C | 66% | 1013 hPa | 0 mm | - | 231 W/m² | - |
| 1778078748 | 3.89° C | 68% | 1012.9 hPa | 0 mm | - | 230 W/m² | - |
| 1778078445 | 3.89° C | 70% | 1012.8 hPa | 0 mm | - | 221 W/m² | - |
| 1778078143 | 3.89° C | 70% | 1012.8 hPa | 0 mm | - | 221 W/m² | - |
| 1778077841 | 3.89° C | 72% | 1012.8 hPa | 0 mm | - | 218 W/m² | - |
* Rain latest hour (hover to see other rain measurements)
** Current wind speed in m/s (hover to see current wind gust speed)